Time,TemperatureF,DewpointF,PressureIn,WindDirection,WindDirectionDegrees,WindSpeedMPH,WindSpeedGustMPH,Humidity,HourlyPrecipIn,Conditions,Clouds,dailyrainin,SolarRadiationWatts/m^2,SoftwareType,DateUTC
2013-03-01 00:00:00,48.4,48.4,30.36,SSW,202,0.0,2.7,100,0.00,,,0.00,0.00,VWS V14.01,2013-03-01 08:00:00,
2013-03-01 00:01:00,49.1,49.1,30.36,SSW,202,0.0,0.0,100,0.00,,,0.00,0.00,VWS V14.01,2013-03-01 08:01:00,
2013-03-01 00:06:00,49.1,49.1,30.36,SSW,202,0.0,0.0,100,0.00,,,0.00,0.00,VWS V14.01,2013-03-01 08:06:00,
2013-03-01 00:11:00,49.1,49.1,30.36,SSW,202,0.0,0.0,100,0.00,,,0.00,0.00,VWS V14.01,2013-03-01 08:11:00,
2013-03-01 00:15:00,48.4,48.4,30.36,SSW,202,0.0,2.5,100,0.00,,,0.00,0.00,VWS V14.01,2013-03-01 08:15:00,
2013-03-01 00:16:00,48.9,48.9,30.36,SSW,202,0.0,0.0,100,0.00,,,0.00,0.00,VWS V14.01,2013-03-01 08:16:00,
2013-03-01 00:21:00,48.7,48.7,30.36,SSW,202,0.0,0.0,100,0.00,,,0.00,0.00,VWS V14.01,2013-03-01 08:21:00,
2013-03-01 00:26:00,48.7,48.7,30.36,SSW,202,0.0,0.9,100,0.00,,,0.00,0.00,VWS V14.01,2013-03-01 08:26:00,
2013-03-01 00:30:00,48.4,48.4,30.36,SSW,202,0.0,1.3,100,0.00,,,0.00,0.00,VWS V14.01,2013-03-01 08:30:00,
2013-03-01 00:31:00,48.6,48.6,30.36,SSW,202,0.0,0.0,100,0.00,,,0.00,0.00,VWS V14.01,2013-03-01 08:31:00,
2013-03-01 00:36:00,48.6,48.6,30.36,SSW,202,0.0,0.0,100,0.00,,,0.00,0.00,VWS V14.01,2013-03-01 08:36:00,
2013-03-01 00:41:00,48.6,48.6,30.36,SSW,202,0.0,0.0,100,0.00,,,0.00,0.00,VWS V14.01,2013-03-01 08:41:00,
2013-03-01 00:45:00,48.6,48.6,30.36,SW,225,0.0,2.7,100,0.00,,,0.00,0.00,VWS V14.01,2013-03-01 08:45:00,
2013-03-01 00:46:00,48.6,48.6,30.36,SSW,202,0.0,0.0,100,0.00,,,0.00,0.00,VWS V14.01,2013-03-01 08:46:00,
2013-03-01 00:51:00,48.6,48.6,30.36,SSW,202,0.0,0.0,100,0.00,,,0.00,0.00,VWS V14.01,2013-03-01 08:51:00,
2013-03-01 00:56:00,48.6,48.6,30.36,SSW,202,0.0,2.7,100,0.00,,,0.00,0.00,VWS V14.01,2013-03-01 08:56:00,
2013-03-01 01:00:00,48.6,48.6,30.36,SW,225,0.0,1.6,100,0.00,,,0.00,0.00,VWS V14.01,2013-03-01 09:00:00,
2013-03-01 01:01:00,48.4,48.4,30.36,SSW,202,0.0,0.0,100,0.00,,,0.00,0.00,VWS V14.01,2013-03-01 09:01:00,
2013-03-01 01:06:00,48.2,48.2,30.36,SSW,202,0.0,0.0,100,0.00,,,0.00,0.00,VWS V14.01,2013-03-01 09:06:00,
2013-03-01 01:11:00,48.6,48.6,30.36,SSW,202,0.0,2.5,100,0.00,,,0.00,0.00,VWS V14.01,2013-03-01 09:11:00,
2013-03-01 01:15:00,48.6,48.6,30.36,SW,225,0.0,2.0,100,0.00,,,0.00,0.00,VWS V14.01,2013-03-01 09:15:00,
2013-03-01 01:16:00,48.6,48.6,30.36,SSW,202,0.0,0.0,100,0.00,,,0.00,0.00,VWS V14.01,2013-03-01 09:16:00,
2013-03-01 01:21:00,48.4,48.4,30.36,SSW,202,0.0,0.0,100,0.00,,,0.00,0.00,VWS V14.01,2013-03-01 09:21:00,
2013-03-01 01:26:00,48.2,48.2,30.36,SSW,202,0.0,0.9,100,0.00,,,0.00,0.00,VWS V14.01,2013-03-01 09:26:00,
2013-03-01 01:30:00,48.4,48.4,30.36,SW,225,0.0,0.0,100,0.00,,,0.00,0.00,VWS V14.01,2013-03-01 09:30:00,
2013-03-01 01:32:00,48.6,48.6,30.36,SSW,202,0.0,0.0,100,0.00,,,0.00,0.00,VWS V14.01,2013-03-01 09:32:00,
2013-03-01 01:37:00,48.6,48.6,30.36,SSW,202,0.0,0.0,100,0.00,,,0.00,0.00,VWS V14.01,2013-03-01 09:37:00,
2013-03-01 01:42:00,48.6,48.6,30.36,SW,225,1.3,2.7,100,0.00,,,0.00,0.00,VWS V14.01,2013-03-01 09:42:00,
2013-03-01 01:45:00,48.6,48.6,30.33,SW,225,0.0,0.0,100,0.00,,,0.00,0.00,VWS V14.01,2013-03-01 09:45:00,
2013-03-01 01:47:00,48.6,48.6,30.36,SW,225,0.0,0.0,100,0.00,,,0.00,0.00,VWS V14.01,2013-03-01 09:47:00,
2013-03-01 01:52:00,48.4,48.4,30.36,SW,225,0.0,1.3,100,0.00,,,0.00,0.00,VWS V14.01,2013-03-01 09:52:00,
2013-03-01 01:57:00,48.6,48.6,30.36,SW,225,0.0,1.6,100,0.00,,,0.00,0.00,VWS V14.01,2013-03-01 09:57:00,
2013-03-01 02:00:00,48.6,48.6,30.33,SW,225,0.0,0.0,100,0.00,,,0.00,0.00,VWS V14.01,2013-03-01 10:00:00,
2013-03-01 02:02:00,48.7,48.7,30.36,SW,225,0.0,0.0,100,0.00,,,0.00,0.00,VWS V14.01,2013-03-01 10:02:00,
2013-03-01 02:07:00,48.6,48.6,30.36,SW,225,0.0,2.0,100,0.00,,,0.00,0.00,VWS V14.01,2013-03-01 10:07:00,
2013-03-01 02:12:00,48.6,48.6,30.36,SW,225,0.0,2.0,100,0.00,,,0.00,0.00,VWS V14.01,2013-03-01 10:12:00,
2013-03-01 02:15:00,48.7,48.7,30.33,SW,225,0.0,0.0,100,0.00,,,0.00,0.00,VWS V14.01,2013-03-01 10:15:00,
2013-03-01 02:17:00,48.4,48.4,30.36,SW,225,0.0,0.0,100,0.00,,,0.00,0.00,VWS V14.01,2013-03-01 10:17:00,
2013-03-01 02:22:00,48.6,48.6,30.36,SW,225,0.0,0.0,100,0.00,,,0.00,0.00,VWS V14.01,2013-03-01 10:22:00,
2013-03-01 02:27:00,48.6,48.6,30.36,SW,225,0.0,0.0,100,0.00,,,0.00,0.00,VWS V14.01,2013-03-01 10:27:00,
2013-03-01 02:30:00,48.7,48.7,30.33,SW,225,0.0,0.0,100,0.00,,,0.00,0.00,VWS V14.01,2013-03-01 10:30:00,
2013-03-01 02:32:00,48.4,48.4,30.36,SW,225,0.0,0.0,100,0.00,,,0.00,0.00,VWS V14.01,2013-03-01 10:32:00,
2013-03-01 02:37:00,48.4,48.4,30.36,SW,225,0.0,0.0,100,0.00,,,0.00,0.00,VWS V14.01,2013-03-01 10:37:00,
2013-03-01 02:42:00,48.6,48.6,30.33,SW,225,0.0,0.0,100,0.00,,,0.00,0.00,VWS V14.01,2013-03-01 10:42:00,
2013-03-01 02:45:00,48.6,48.6,30.33,SW,225,0.0,0.0,100,0.00,,,0.00,0.00,VWS V14.01,2013-03-01 10:45:00,
2013-03-01 02:48:00,48.6,48.6,30.33,SW,225,0.0,0.0,100,0.00,,,0.00,0.00,VWS V14.01,2013-03-01 10:48:00,
2013-03-01 02:53:00,48.6,48.6,30.33,SW,225,0.0,0.0,100,0.00,,,0.00,0.00,VWS V14.01,2013-03-01 10:53:00,
2013-03-01 02:58:00,48.6,48.6,30.33,SW,225,0.0,0.0,100,0.00,,,0.00,0.00,VWS V14.01,2013-03-01 10:58:00,
2013-03-01 03:00:00,48.0,48.0,30.33,SW,225,0.0,0.0,100,0.00,,,0.00,0.00,VWS V14.01,2013-03-01 11:00:00,
2013-03-01 03:03:00,48.7,48.7,30.33,SW,225,0.0,0.0,100,0.00,,,0.00,0.00,VWS V14.01,2013-03-01 11:03:00,
2013-03-01 03:08:00,48.6,48.6,30.33,SW,225,0.0,0.0,100,0.00,,,0.00,0.00,VWS V14.01,2013-03-01 11:08:00,
2013-03-01 03:13:00,48.7,48.7,30.33,SW,225,0.0,0.0,100,0.00,,,0.00,0.00,VWS V14.01,2013-03-01 11:13:00,
2013-03-01 03:15:00,47.8,47.8,30.33,SW,225,0.0,0.0,100,0.00,,,0.00,0.00,VWS V14.01,2013-03-01 11:15:00,
2013-03-01 03:18:00,48.7,48.7,30.33,SW,225,0.0,0.0,100,0.00,,,0.00,0.00,VWS V14.01,2013-03-01 11:18:00,
2013-03-01 03:23:00,48.6,48.6,30.33,SW,225,0.0,0.0,100,0.00,,,0.00,0.00,VWS V14.01,2013-03-01 11:23:00,
2013-03-01 03:28:00,48.6,48.6,30.33,SW,225,0.0,0.0,100,0.00,,,0.00,0.00,VWS V14.01,2013-03-01 11:28:00,
2013-03-01 03:30:00,48.0,48.0,30.33,SSW,202,0.0,0.0,100,0.00,,,0.00,0.00,VWS V14.01,2013-03-01 11:30:00,
2013-03-01 03:33:00,48.7,48.7,30.33,SW,225,0.0,0.0,100,0.00,,,0.00,0.00,VWS V14.01,2013-03-01 11:33:00,
2013-03-01 03:38:00,48.7,48.7,30.33,SW,225,0.0,0.0,100,0.00,,,0.00,0.00,VWS V14.01,2013-03-01 11:38:00,
2013-03-01 03:43:00,48.6,48.6,30.33,SW,225,0.0,0.0,100,0.00,,,0.00,0.00,VWS V14.01,2013-03-01 11:43:00,
2013-03-01 03:45:00,48.2,48.2,30.33,SSW,202,0.0,0.9,100,0.00,,,0.00,0.00,VWS V14.01,2013-03-01 11:45:00,
2013-03-01 03:48:00,48.6,48.6,30.33,SW,225,0.0,0.0,100,0.00,,,0.00,0.00,VWS V14.01,2013-03-01 11:48:00,
2013-03-01 03:53:00,48.2,48.2,30.33,SW,225,0.0,0.0,100,0.00,,,0.00,0.00,VWS V14.01,2013-03-01 11:53:00,
2013-03-01 03:58:00,48.0,48.0,30.33,SW,225,0.0,0.0,100,0.00,,,0.00,0.00,VWS V14.01,2013-03-01 11:58:00,
2013-03-01 04:00:00,48.2,48.2,30.33,SSW,202,0.0,1.6,100,0.00,,,0.00,0.00,VWS V14.01,2013-03-01 12:00:00,
2013-03-01 04:03:00,48.2,48.2,30.33,SW,225,0.0,0.0,100,0.00,,,0.00,0.00,VWS V14.01,2013-03-01 12:03:00,
2013-03-01 04:08:00,47.8,47.8,30.33,SW,225,0.0,0.0,100,0.00,,,0.00,0.00,VWS V14.01,2013-03-01 12:08:00,
2013-03-01 04:13:00,47.8,47.8,30.33,SW,225,0.0,0.0,100,0.00,,,0.00,0.00,VWS V14.01,2013-03-01 12:13:00,
2013-03-01 04:15:00,48.0,48.0,30.33,SSW,202,0.0,0.0,100,0.00,,,0.00,0.00,VWS V14.01,2013-03-01 12:15:00,
2013-03-01 04:18:00,47.8,47.8,30.33,SW,225,0.0,0.0,100,0.00,,,0.00,0.00,VWS V14.01,2013-03-01 12:18:00,
2013-03-01 04:23:00,47.8,47.8,30.33,SW,225,0.0,0.0,100,0.00,,,0.00,0.00,VWS V14.01,2013-03-01 12:23:00,
2013-03-01 04:28:00,48.0,48.0,30.33,SSW,202,0.0,0.0,100,0.00,,,0.00,0.00,VWS V14.01,2013-03-01 12:28:00,
2013-03-01 04:30:00,48.0,48.0,30.33,SSW,202,0.0,0.0,100,0.00,,,0.00,0.00,VWS V14.01,2013-03-01 12:30:00,
2013-03-01 04:33:00,48.2,48.2,30.33,SSW,202,0.0,0.9,100,0.00,,,0.00,0.00,VWS V14.01,2013-03-01 12:33:00,
2013-03-01 04:38:00,48.0,48.0,30.33,SSW,202,0.0,0.9,100,0.00,,,0.00,0.00,VWS V14.01,2013-03-01 12:38:00,
2013-03-01 04:43:00,48.2,48.2,30.33,SSW,202,0.0,0.9,100,0.00,,,0.00,0.00,VWS V14.01,2013-03-01 12:43:00,
2013-03-01 04:45:00,47.7,47.7,30.33,SSW,202,0.0,0.0,100,0.00,,,0.00,0.00,VWS V14.01,2013-03-01 12:45:00,
2013-03-01 04:48:00,48.2,48.2,30.33,SSW,202,0.0,0.0,100,0.00,,,0.00,0.00,VWS V14.01,2013-03-01 12:48:00,
2013-03-01 04:53:00,48.2,48.2,30.33,SSW,202,0.9,1.6,100,0.00,,,0.00,0.00,VWS V14.01,2013-03-01 12:53:00,
2013-03-01 04:58:00,48.2,48.2,30.33,SSW,202,0.0,1.6,100,0.00,,,0.00,0.00,VWS V14.01,2013-03-01 12:58:00,
2013-03-01 05:00:00,47.5,47.5,30.33,SSW,202,0.0,0.0,100,0.00,,,0.00,0.00,VWS V14.01,2013-03-01 13:00:00,
2013-03-01 05:03:00,48.0,48.0,30.33,SSW,202,0.0,0.0,100,0.00,,,0.00,0.00,VWS V14.01,2013-03-01 13:03:00,
2013-03-01 05:08:00,48.0,48.0,30.33,SSW,202,0.0,0.0,100,0.00,,,0.00,0.00,VWS V14.01,2013-03-01 13:08:00,
2013-03-01 05:13:00,48.0,48.0,30.33,SSW,202,0.0,0.0,100,0.00,,,0.00,0.00,VWS V14.01,2013-03-01 13:13:00,
2013-03-01 05:15:00,47.7,47.7,30.33,SSW,202,0.0,0.0,100,0.00,,,0.00,0.00,VWS V14.01,2013-03-01 13:15:00,
2013-03-01 05:19:00,48.0,48.0,30.33,SSW,202,0.0,0.0,100,0.00,,,0.00,0.00,VWS V14.01,2013-03-01 13:19:00,
2013-03-01 05:24:00,48.0,48.0,30.33,SSW,202,0.0,0.0,100,0.00,,,0.00,0.00,VWS V14.01,2013-03-01 13:24:00,
2013-03-01 05:29:00,48.0,48.0,30.33,SSW,202,0.0,0.0,100,0.00,,,0.00,0.00,VWS V14.01,2013-03-01 13:29:00,
2013-03-01 05:30:00,47.3,47.3,30.30,SSW,202,0.0,0.0,100,0.00,,,0.00,0.00,VWS V14.01,2013-03-01 13:30:00,
2013-03-01 05:34:00,47.8,47.8,30.33,SSW,202,0.0,0.0,100,0.00,,,0.00,0.00,VWS V14.01,2013-03-01 13:34:00,
2013-03-01 05:39:00,47.7,47.7,30.33,SSW,202,0.0,0.0,100,0.00,,,0.00,0.00,VWS V14.01,2013-03-01 13:39:00,
2013-03-01 05:44:00,47.7,47.7,30.33,SSW,202,0.0,0.0,100,0.00,,,0.00,0.00,VWS V14.01,2013-03-01 13:44:00,
2013-03-01 05:45:00,47.7,47.7,30.30,SSW,202,0.0,0.0,100,0.00,,,0.00,0.00,VWS V14.01,2013-03-01 13:45:00,
2013-03-01 05:49:00,47.7,47.7,30.33,SSW,202,0.0,0.0,100,0.00,,,0.00,0.00,VWS V14.01,2013-03-01 13:49:00,
2013-03-01 05:54:00,47.5,47.5,30.33,SSW,202,0.0,0.0,100,0.00,,,0.00,0.00,VWS V14.01,2013-03-01 13:54:00,
2013-03-01 05:59:00,47.5,47.5,30.33,SSW,202,0.0,0.0,100,0.00,,,0.00,0.00,VWS V14.01,2013-03-01 13:59:00,
2013-03-01 06:00:00,48.2,48.2,30.30,SSW,202,0.0,0.0,100,0.00,,,0.00,0.00,VWS V14.01,2013-03-01 14:00:00,
2013-03-01 06:04:00,47.5,47.5,30.33,SSW,202,0.0,0.0,100,0.00,,,0.00,0.00,VWS V14.01,2013-03-01 14:04:00,
2013-03-01 06:09:00,47.5,47.5,30.33,SSW,202,0.0,0.0,100,0.00,,,0.00,0.00,VWS V14.01,2013-03-01 14:09:00,
2013-03-01 06:14:00,47.7,47.7,30.33,SSW,202,0.0,0.0,100,0.00,,,0.00,0.00,VWS V14.01,2013-03-01 14:14:00,
2013-03-01 06:15:00,48.0,48.0,30.30,SSW,202,0.0,0.0,100,0.00,,,0.00,0.00,VWS V14.01,2013-03-01 14:15:00,
2013-03-01 06:19:00,47.7,47.7,30.33,SSW,202,0.0,0.0,100,0.00,,,0.00,0.00,VWS V14.01,2013-03-01 14:19:00,
2013-03-01 06:24:00,47.3,47.3,30.33,SSW,202,0.0,0.0,100,0.00,,,0.00,0.00,VWS V14.01,2013-03-01 14:24:00,
2013-03-01 06:29:00,47.3,47.3,30.30,SSW,202,0.0,0.0,100,0.00,,,0.00,0.00,VWS V14.01,2013-03-01 14:29:00,
2013-03-01 06:30:00,48.0,48.0,30.30,SSW,202,0.0,0.0,100,0.00,,,0.00,0.00,VWS V14.01,2013-03-01 14:30:00,
2013-03-01 06:34:00,47.3,47.3,30.30,SSW,202,0.0,0.0,100,0.00,,,0.00,0.00,VWS V14.01,2013-03-01 14:34:00,
2013-03-01 06:39:00,47.5,47.5,30.30,SSW,202,0.0,0.0,100,0.00,,,0.00,0.00,VWS V14.01,2013-03-01 14:39:00,
2013-03-01 06:44:00,47.7,47.7,30.30,SSW,202,0.0,0.0,100,0.00,,,0.00,0.00,VWS V14.01,2013-03-01 14:44:00,
2013-03-01 06:45:00,48.4,48.4,30.30,SSW,202,0.0,0.0,100,0.00,,,0.00,0.00,VWS V14.01,2013-03-01 14:45:00,
2013-03-01 06:49:00,47.8,47.8,30.30,SSW,202,0.0,0.0,100,0.00,,,0.00,0.00,VWS V14.01,2013-03-01 14:49:00,
2013-03-01 06:54:00,48.4,48.4,30.30,SSW,202,0.0,0.0,100,0.00,,,0.00,0.00,VWS V14.01,2013-03-01 14:54:00,
2013-03-01 06:59:00,48.2,48.2,30.30,SSW,202,0.0,0.0,100,0.00,,,0.00,0.00,VWS V14.01,2013-03-01 14:59:00,
2013-03-01 07:00:00,48.7,48.7,30.30,SSW,202,0.0,0.0,100,0.00,,,0.00,0.00,VWS V14.01,2013-03-01 15:00:00,
2013-03-01 07:04:00,48.0,48.0,30.30,SSW,202,0.0,0.0,100,0.00,,,0.00,0.00,VWS V14.01,2013-03-01 15:04:00,
2013-03-01 07:09:00,47.7,47.7,30.30,SSW,202,0.0,0.0,100,0.00,,,0.00,0.00,VWS V14.01,2013-03-01 15:09:00,
2013-03-01 07:14:00,48.0,48.0,30.30,SSW,202,0.0,0.0,100,0.00,,,0.00,0.00,VWS V14.01,2013-03-01 15:14:00,
2013-03-01 07:15:00,49.5,49.5,30.30,NE,45,0.0,0.0,100,0.00,,,0.00,0.00,VWS V14.01,2013-03-01 15:15:00,
2013-03-01 07:19:00,48.0,48.0,30.30,SSW,202,0.0,0.0,100,0.00,,,0.00,0.00,VWS V14.01,2013-03-01 15:19:00,
2013-03-01 07:24:00,48.0,48.0,30.30,SSW,202,0.0,0.0,100,0.00,,,0.00,0.00,VWS V14.01,2013-03-01 15:24:00,
2013-03-01 07:29:00,48.0,48.0,30.30,SSW,202,0.0,0.0,100,0.00,,,0.00,0.00,VWS V14.01,2013-03-01 15:29:00,
2013-03-01 07:30:00,50.4,50.4,30.30,NE,45,0.0,2.5,100,0.00,,,0.00,0.00,VWS V14.01,2013-03-01 15:30:00,
2013-03-01 07:34:00,48.2,48.2,30.30,SSW,202,0.0,0.0,100,0.00,,,0.00,0.00,VWS V14.01,2013-03-01 15:34:00,
2013-03-01 07:39:00,48.2,48.2,30.30,SSW,202,0.0,0.0,100,0.00,,,0.00,0.00,VWS V14.01,2013-03-01 15:39:00,
2013-03-01 07:44:00,48.4,48.4,30.30,SSW,202,0.0,0.0,100,0.00,,,0.00,0.00,VWS V14.01,2013-03-01 15:44:00,
2013-03-01 07:45:00,51.8,51.8,30.30,ESE,112,0.0,0.0,100,0.00,,,0.00,0.00,VWS V14.01,2013-03-01 15:45:00,
2013-03-01 07:49:00,48.4,48.4,30.30,SSW,202,0.0,0.0,100,0.00,,,0.00,0.00,VWS V14.01,2013-03-01 15:49:00,
2013-03-01 07:54:00,48.6,48.6,30.30,SSW,202,0.0,0.0,100,0.00,,,0.00,0.00,VWS V14.01,2013-03-01 15:54:00,
2013-03-01 07:59:00,48.7,48.7,30.30,SSW,202,0.0,0.0,100,0.00,,,0.00,0.00,VWS V14.01,2013-03-01 15:59:00,
2013-03-01 08:00:00,54.0,54.0,30.30,East,90,0.9,3.8,100,0.00,,,0.00,0.00,VWS V14.01,2013-03-01 16:00:00,
2013-03-01 08:04:00,48.7,48.7,30.30,SSW,202,0.0,0.0,100,0.00,,,0.00,0.00,VWS V14.01,2013-03-01 16:04:00,
2013-03-01 08:09:00,48.9,48.9,30.30,SSW,202,0.0,0.0,100,0.00,,,0.00,0.00,VWS V14.01,2013-03-01 16:09:00,
2013-03-01 08:14:00,49.5,49.5,30.30,SSW,202,0.0,0.0,100,0.00,,,0.00,0.00,VWS V14.01,2013-03-01 16:14:00,
2013-03-01 08:15:00,54.9,54.9,30.30,East,90,0.0,2.7,100,0.00,,,0.00,0.00,VWS V14.01,2013-03-01 16:15:00,
2013-03-01 08:19:00,49.8,49.8,30.30,NE,45,0.0,0.0,100,0.00,,,0.00,0.00,VWS V14.01,2013-03-01 16:19:00,
2013-03-01 08:24:00,50.2,50.2,30.30,NNE,22,0.0,0.0,100,0.00,,,0.00,0.00,VWS V14.01,2013-03-01 16:24:00,
2013-03-01 08:29:00,50.4,50.4,30.30,North,0,0.0,2.5,100,0.00,,,0.00,0.00,VWS V14.01,2013-03-01 16:29:00,
2013-03-01 08:30:00,55.9,55.9,30.30,ENE,68,0.0,1.1,100,0.00,,,0.00,0.00,VWS V14.01,2013-03-01 16:30:00,
2013-03-01 08:34:00,50.5,50.5,30.30,NE,45,0.0,0.0,100,0.00,,,0.00,0.00,VWS V14.01,2013-03-01 16:34:00,
2013-03-01 08:39:00,50.9,50.9,30.30,ESE,112,0.0,0.0,100,0.00,,,0.00,0.00,VWS V14.01,2013-03-01 16:39:00,
2013-03-01 08:44:00,51.8,51.8,30.30,ESE,112,0.0,0.0,100,0.00,,,0.00,0.00,VWS V14.01,2013-03-01 16:44:00,
2013-03-01 08:45:00,57.6,57.0,30.30,ENE,68,0.0,0.0,98,0.00,,,0.00,0.00,VWS V14.01,2013-03-01 16:45:00,
2013-03-01 08:49:00,52.2,52.2,30.30,SSW,202,0.0,2.0,100,0.00,,,0.00,0.00,VWS V14.01,2013-03-01 16:49:00,
2013-03-01 08:54:00,52.5,52.5,30.30,SE,135,3.4,3.8,100,0.00,,,0.00,0.00,VWS V14.01,2013-03-01 16:54:00,
2013-03-01 08:59:00,54.0,54.0,30.30,East,90,0.0,3.8,100,0.00,,,0.00,0.00,VWS V14.01,2013-03-01 16:59:00,
2013-03-01 09:00:00,59.0,56.4,30.33,East,90,0.0,2.0,91,0.00,,,0.00,0.00,VWS V14.01,2013-03-01 17:00:00,
2013-03-01 09:04:00,54.5,54.5,30.30,East,90,0.0,0.9,100,0.00,,,0.00,0.00,VWS V14.01,2013-03-01 17:04:00,
2013-03-01 09:09:00,54.9,54.9,30.30,East,90,0.0,2.2,100,0.00,,,0.00,0.00,VWS V14.01,2013-03-01 17:09:00,
2013-03-01 09:15:00,54.9,54.9,30.30,East,90,0.0,2.7,100,0.00,,,0.00,0.00,VWS V14.01,2013-03-01 17:15:00,
2013-03-01 09:20:00,54.9,54.9,30.30,East,90,0.0,0.0,100,0.00,,,0.00,0.00,VWS V14.01,2013-03-01 17:20:00,
2013-03-01 09:25:00,55.0,55.0,30.30,ENE,68,0.0,1.1,100,0.00,,,0.00,0.00,VWS V14.01,2013-03-01 17:25:00,
2013-03-01 09:30:00,55.9,55.9,30.30,ENE,68,0.0,0.0,100,0.00,,,0.00,0.00,VWS V14.01,2013-03-01 17:30:00,
2013-03-01 09:35:00,56.5,56.5,30.30,ENE,68,0.0,0.0,100,0.00,,,0.00,0.00,VWS V14.01,2013-03-01 17:35:00,
2013-03-01 09:40:00,57.6,57.3,30.30,ENE,68,0.0,0.0,99,0.00,,,0.00,0.00,VWS V14.01,2013-03-01 17:40:00,
2013-03-01 09:45:00,57.6,57.0,30.30,ENE,68,0.0,0.0,98,0.00,,,0.00,0.00,VWS V14.01,2013-03-01 17:45:00,
2013-03-01 09:50:00,58.1,57.0,30.30,ESE,112,0.0,2.0,96,0.00,,,0.00,0.00,VWS V14.01,2013-03-01 17:50:00,
2013-03-01 09:55:00,58.8,57.1,30.30,East,90,0.0,2.0,94,0.00,,,0.00,0.00,VWS V14.01,2013-03-01 17:55:00,
2013-03-01 10:00:00,59.0,56.4,30.33,East,90,0.0,0.0,91,0.00,,,0.00,0.00,VWS V14.01,2013-03-01 18:00:00,
2013-03-01 10:05:00,59.2,55.3,30.33,SSE,158,0.0,0.0,87,0.00,,,0.00,0.00,VWS V14.01,2013-03-01 18:05:00,
2013-03-01 10:10:00,59.9,55.7,30.33,ESE,112,0.0,0.0,86,0.00,,,0.00,0.00,VWS V14.01,2013-03-01 18:10:00,
2013-03-01 10:15:00,60.1,56.5,30.33,East,90,0.0,0.9,88,0.00,,,0.00,0.00,VWS V14.01,2013-03-01 18:15:00,
2013-03-01 10:20:00,60.3,56.1,30.33,East,90,0.0,2.0,86,0.00,,,0.00,0.00,VWS V14.01,2013-03-01 18:20:00,
2013-03-01 10:25:00,61.2,56.6,30.33,ESE,112,0.0,2.0,85,0.00,,,0.00,0.00,VWS V14.01,2013-03-01 18:25:00,
2013-03-01 10:30:00,61.7,56.2,30.33,SE,135,0.0,0.0,82,0.00,,,0.00,0.00,VWS V14.01,2013-03-01 18:30:00,
2013-03-01 10:35:00,61.9,56.7,30.33,East,90,2.7,4.3,83,0.00,,,0.00,0.00,VWS V14.01,2013-03-01 18:35:00,
2013-03-01 10:40:00,62.2,56.3,30.33,East,90,0.0,4.3,81,0.00,,,0.00,0.00,VWS V14.01,2013-03-01 18:40:00,
2013-03-01 10:45:00,62.1,56.2,30.30,East,90,1.3,2.7,81,0.00,,,0.00,0.00,VWS V14.01,2013-03-01 18:45:00,
2013-03-01 10:50:00,62.2,56.3,30.30,East,90,2.0,3.1,81,0.00,,,0.00,0.00,VWS V14.01,2013-03-01 18:50:00,
2013-03-01 10:55:00,63.1,56.9,30.30,East,90,3.1,3.8,80,0.00,,,0.00,0.00,VWS V14.01,2013-03-01 18:55:00,
2013-03-01 11:00:00,63.5,56.5,30.30,ESE,112,0.0,2.0,78,0.00,,,0.00,0.00,VWS V14.01,2013-03-01 19:00:00,
2013-03-01 11:05:00,64.0,57.4,30.30,SSE,158,2.0,3.1,79,0.00,,,0.00,0.00,VWS V14.01,2013-03-01 19:05:00,
2013-03-01 11:10:00,64.2,55.0,30.30,SE,135,1.3,3.1,72,0.00,,,0.00,0.00,VWS V14.01,2013-03-01 19:10:00,
2013-03-01 11:15:00,65.5,56.6,30.30,SSE,158,2.5,2.7,73,0.00,,,0.00,0.00,VWS V14.01,2013-03-01 19:15:00,
2013-03-01 11:20:00,65.3,55.7,30.30,East,90,3.4,4.9,71,0.00,,,0.00,0.00,VWS V14.01,2013-03-01 19:20:00,
2013-03-01 11:25:00,65.5,55.0,30.30,ESE,112,2.2,4.9,69,0.00,,,0.00,0.00,VWS V14.01,2013-03-01 19:25:00,
2013-03-01 11:30:00,66.6,54.0,30.30,East,90,2.9,3.4,64,0.00,,,0.00,0.00,VWS V14.01,2013-03-01 19:30:00,
2013-03-01 11:35:00,66.4,53.0,30.30,ENE,68,2.7,4.0,62,0.00,,,0.00,0.00,VWS V14.01,2013-03-01 19:35:00,
2013-03-01 11:40:00,67.3,52.9,30.30,North,0,4.0,4.7,60,0.00,,,0.00,0.00,VWS V14.01,2013-03-01 19:40:00,
2013-03-01 11:45:00,67.1,52.3,30.30,East,90,3.8,3.8,59,0.00,,,0.00,0.00,VWS V14.01,2013-03-01 19:45:00,
2013-03-01 11:50:00,66.9,52.1,30.30,East,90,0.0,3.8,59,0.00,,,0.00,0.00,VWS V14.01,2013-03-01 19:50:00,
2013-03-01 11:55:00,67.8,52.5,30.30,East,90,2.5,4.3,58,0.00,,,0.00,0.00,VWS V14.01,2013-03-01 19:55:00,
2013-03-01 12:00:00,69.3,54.3,30.27,East,90,0.0,4.7,59,0.00,,,0.00,0.00,VWS V14.01,2013-03-01 20:00:00,
2013-03-01 12:01:00,67.8,52.0,30.27,NE,45,5.4,5.4,57,0.00,,,0.00,0.00,VWS V14.01,2013-03-01 20:01:00,
2013-03-01 12:06:00,67.3,52.0,30.27,East,90,3.1,5.4,58,0.00,,,0.00,0.00,VWS V14.01,2013-03-01 20:06:00,
2013-03-01 12:11:00,67.6,52.3,30.27,NE,45,3.6,5.4,58,0.00,,,0.00,0.00,VWS V14.01,2013-03-01 20:11:00,
2013-03-01 12:15:00,69.8,52.9,30.27,ESE,112,0.0,5.4,55,0.00,,,0.00,0.00,VWS V14.01,2013-03-01 20:15:00,
2013-03-01 12:16:00,68.4,53.0,30.27,SSE,158,0.0,3.4,58,0.00,,,0.00,0.00,VWS V14.01,2013-03-01 20:16:00,
2013-03-01 12:21:00,67.6,51.9,30.27,NE,45,2.5,5.6,57,0.00,,,0.00,0.00,VWS V14.01,2013-03-01 20:21:00,
2013-03-01 12:26:00,67.5,52.2,30.27,North,0,4.3,5.6,58,0.00,,,0.00,0.00,VWS V14.01,2013-03-01 20:26:00,
2013-03-01 12:30:00,70.0,51.0,30.24,NE,45,3.8,5.4,51,0.00,,,0.00,0.00,VWS V14.01,2013-03-01 20:30:00,
2013-03-01 12:31:00,67.8,52.5,30.27,NNW,338,1.3,3.4,58,0.00,,,0.00,0.00,VWS V14.01,2013-03-01 20:31:00,
2013-03-01 12:36:00,67.6,51.9,30.27,East,90,3.1,4.0,57,0.00,,,0.00,0.00,VWS V14.01,2013-03-01 20:36:00,
2013-03-01 12:41:00,67.3,52.0,30.27,ESE,112,0.0,4.3,58,0.00,,,0.00,0.00,VWS V14.01,2013-03-01 20:41:00,
2013-03-01 12:45:00,69.6,50.2,30.24,North,0,3.4,4.3,50,0.00,,,0.00,0.00,VWS V14.01,2013-03-01 20:45:00,
2013-03-01 12:46:00,68.4,53.5,30.27,NE,45,3.1,3.1,59,0.00,,,0.00,0.00,VWS V14.01,2013-03-01 20:46:00,
2013-03-01 12:51:00,68.4,53.5,30.27,East,90,2.9,3.8,59,0.00,,,0.00,0.00,VWS V14.01,2013-03-01 20:51:00,
2013-03-01 12:56:00,69.1,53.7,30.27,North,0,2.9,3.8,58,0.00,,,0.00,0.00,VWS V14.01,2013-03-01 20:56:00,
2013-03-01 13:00:00,69.6,49.1,30.24,East,90,0.9,3.8,48,0.00,,,0.00,0.00,VWS V14.01,2013-03-01 21:00:00,
2013-03-01 13:01:00,69.4,54.0,30.27,North,0,2.0,2.7,58,0.00,,,0.00,0.00,VWS V14.01,2013-03-01 21:01:00,
2013-03-01 13:06:00,69.8,53.9,30.27,NNW,338,0.0,3.8,57,0.00,,,0.00,0.00,VWS V14.01,2013-03-01 21:06:00,
2013-03-01 13:11:00,69.1,51.8,30.27,NE,45,3.8,5.4,54,0.00,,,0.00,0.00,VWS V14.01,2013-03-01 21:11:00,
2013-03-01 13:15:00,71.1,50.4,30.24,NNW,338,0.0,3.4,48,0.00,,,0.00,0.00,VWS V14.01,2013-03-01 21:15:00,
2013-03-01 13:16:00,70.0,53.1,30.27,NNE,22,2.2,4.0,55,0.00,,,0.00,0.00,VWS V14.01,2013-03-01 21:16:00,
2013-03-01 13:21:00,70.0,52.1,30.27,NNW,338,2.7,4.7,53,0.00,,,0.00,0.00,VWS V14.01,2013-03-01 21:21:00,
2013-03-01 13:26:00,70.0,51.0,30.27,ENE,68,0.0,5.4,51,0.00,,,0.00,0.00,VWS V14.01,2013-03-01 21:26:00,
2013-03-01 13:30:00,71.8,49.9,30.24,North,0,0.0,4.0,46,0.00,,,0.00,0.00,VWS V14.01,2013-03-01 21:30:00,
2013-03-01 13:31:00,70.0,51.6,30.24,NE,45,3.1,3.8,52,0.00,,,0.00,0.00,VWS V14.01,2013-03-01 21:31:00,
2013-03-01 13:36:00,69.8,50.3,30.24,ENE,68,4.3,4.3,50,0.00,,,0.00,0.00,VWS V14.01,2013-03-01 21:36:00,
2013-03-01 13:41:00,69.4,49.5,30.24,NE,45,0.0,4.3,49,0.00,,,0.00,0.00,VWS V14.01,2013-03-01 21:41:00,
2013-03-01 13:45:00,72.7,50.1,30.24,East,90,0.0,3.4,45,0.00,,,0.00,0.00,VWS V14.01,2013-03-01 21:45:00,
2013-03-01 13:46:00,69.6,49.6,30.24,North,0,0.0,3.4,49,0.00,,,0.00,0.00,VWS V14.01,2013-03-01 21:46:00,
2013-03-01 13:51:00,70.5,50.5,30.24,East,90,2.5,3.4,49,0.00,,,0.00,0.00,VWS V14.01,2013-03-01 21:51:00,
2013-03-01 13:57:00,70.2,49.6,30.24,East,90,0.0,3.4,48,0.00,,,0.00,0.00,VWS V14.01,2013-03-01 21:57:00,
2013-03-01 14:00:00,73.2,51.2,30.21,SSE,158,0.0,0.9,46,0.00,,,0.00,0.00,VWS V14.01,2013-03-01 22:00:00,
2013-03-01 14:02:00,69.4,48.9,30.24,NNE,22,0.0,3.4,48,0.00,,,0.00,0.00,VWS V14.01,2013-03-01 22:02:00,
2013-03-01 14:07:00,70.0,49.4,30.24,NE,45,0.0,3.4,48,0.00,,,0.00,0.00,VWS V14.01,2013-03-01 22:07:00,
2013-03-01 14:12:00,70.7,49.5,30.24,East,90,2.9,3.4,47,0.00,,,0.00,0.00,VWS V14.01,2013-03-01 22:12:00,
2013-03-01 14:15:00,72.3,51.0,30.21,SE,135,0.0,0.0,47,0.00,,,0.00,0.00,VWS V14.01,2013-03-01 22:15:00,
2013-03-01 14:17:00,71.4,50.7,30.24,NE,45,0.0,2.5,48,0.00,,,0.00,0.00,VWS V14.01,2013-03-01 22:17:00,
2013-03-01 14:22:00,71.1,49.3,30.24,NE,45,2.9,4.0,46,0.00,,,0.00,0.00,VWS V14.01,2013-03-01 22:22:00,
2013-03-01 14:27:00,71.6,49.8,30.24,East,90,1.3,4.0,46,0.00,,,0.00,0.00,VWS V14.01,2013-03-01 22:27:00,
2013-03-01 14:30:00,69.4,49.5,30.24,SSW,202,0.0,0.0,49,0.00,,,0.00,0.00,VWS V14.01,2013-03-01 22:30:00,
2013-03-01 14:32:00,72.0,50.1,30.24,ENE,68,0.0,0.0,46,0.00,,,0.00,0.00,VWS V14.01,2013-03-01 22:32:00,
2013-03-01 14:37:00,72.3,49.8,30.24,East,90,0.0,0.0,45,0.00,,,0.00,0.00,VWS V14.01,2013-03-01 22:37:00,
2013-03-01 14:42:00,72.5,50.0,30.24,ENE,68,0.0,3.4,45,0.00,,,0.00,0.00,VWS V14.01,2013-03-01 22:42:00,
2013-03-01 14:45:00,68.2,49.4,30.21,SSW,202,0.0,7.2,51,0.00,,,0.00,0.00,VWS V14.01,2013-03-01 22:45:00,
2013-03-01 14:47:00,72.1,49.0,30.24,NE,45,0.0,0.0,44,0.00,,,0.00,0.00,VWS V14.01,2013-03-01 22:47:00,
2013-03-01 14:52:00,73.4,50.8,30.24,East,90,0.0,0.0,45,0.00,,,0.00,0.00,VWS V14.01,2013-03-01 22:52:00,
2013-03-01 14:57:00,73.2,50.6,30.21,SSE,158,0.0,0.9,45,0.00,,,0.00,0.00,VWS V14.01,2013-03-01 22:57:00,
2013-03-01 15:00:00,66.7,51.0,30.21,SSW,202,0.0,4.3,57,0.00,,,0.00,0.00,VWS V14.01,2013-03-01 23:00:00,
2013-03-01 15:02:00,72.3,50.4,30.21,SSE,158,0.0,0.0,46,0.00,,,0.00,0.00,VWS V14.01,2013-03-01 23:02:00,
2013-03-01 15:07:00,72.0,50.1,30.21,SSE,158,0.0,0.0,46,0.00,,,0.00,0.00,VWS V14.01,2013-03-01 23:07:00,
2013-03-01 15:12:00,72.5,51.2,30.21,SE,135,0.0,0.0,47,0.00,,,0.00,0.00,VWS V14.01,2013-03-01 23:12:00,
2013-03-01 15:15:00,65.7,51.0,30.21,South,180,2.2,2.9,59,0.00,,,0.00,0.00,VWS V14.01,2013-03-01 23:15:00,
2013-03-01 15:17:00,72.1,50.8,30.21,SE,135,0.0,0.0,47,0.00,,,0.00,0.00,VWS V14.01,2013-03-01 23:17:00,
2013-03-01 15:22:00,72.3,51.0,30.21,SE,135,0.0,0.0,47,0.00,,,0.00,0.00,VWS V14.01,2013-03-01 23:22:00,
2013-03-01 15:27:00,70.2,49.6,30.24,SW,225,0.0,0.0,48,0.00,,,0.00,0.00,VWS V14.01,2013-03-01 23:27:00,
2013-03-01 15:30:00,65.8,51.1,30.21,SW,225,2.7,5.4,59,0.00,,,0.00,0.00,VWS V14.01,2013-03-01 23:30:00,
2013-03-01 15:32:00,69.1,49.1,30.24,SSW,202,3.6,4.3,49,0.00,,,0.00,0.00,VWS V14.01,2013-03-01 23:32:00,
2013-03-01 15:37:00,69.1,49.7,30.24,SW,225,3.8,7.2,50,0.00,,,0.00,0.00,VWS V14.01,2013-03-01 23:37:00,
2013-03-01 15:42:00,68.4,49.5,30.21,SSW,202,0.0,7.2,51,0.00,,,0.00,0.00,VWS V14.01,2013-03-01 23:42:00,
2013-03-01 15:45:00,65.1,50.5,30.18,South,180,3.6,4.5,59,0.00,,,0.00,0.00,VWS V14.01,2013-03-01 23:45:00,
2013-03-01 15:47:00,68.0,49.7,30.21,SSW,202,2.5,3.4,52,0.00,,,0.00,0.00,VWS V14.01,2013-03-01 23:47:00,
2013-03-01 15:54:00,67.1,50.4,30.21,SW,225,0.0,4.3,55,0.00,,,0.00,0.00,VWS V14.01,2013-03-01 23:54:00,
2013-03-01 15:59:00,66.7,51.0,30.21,SSW,202,0.0,4.3,57,0.00,,,0.00,0.00,VWS V14.01,2013-03-01 23:59:00,
2013-03-01 16:00:00,64.4,50.7,30.18,SSW,202,0.0,5.4,61,0.00,,,0.00,0.00,VWS V14.01,2013-03-02 00:00:00,
2013-03-01 16:04:00,66.2,51.0,30.21,SSW,202,0.0,0.0,58,0.00,,,0.00,0.00,VWS V14.01,2013-03-02 00:04:00,
2013-03-01 16:09:00,65.7,51.0,30.21,SSW,202,0.0,2.5,59,0.00,,,0.00,0.00,VWS V14.01,2013-03-02 00:09:00,
2013-03-01 16:14:00,65.7,51.0,30.21,South,180,0.0,2.5,59,0.00,,,0.00,0.00,VWS V14.01,2013-03-02 00:14:00,
2013-03-01 16:15:00,63.7,50.9,30.18,SSW,202,2.9,4.3,63,0.00,,,0.00,0.00,VWS V14.01,2013-03-02 00:15:00,
2013-03-01 16:19:00,65.7,51.9,30.21,SW,225,0.0,2.9,61,0.00,,,0.00,0.00,VWS V14.01,2013-03-02 00:19:00,
2013-03-01 16:24:00,65.8,51.1,30.21,SSW,202,2.9,3.8,59,0.00,,,0.00,0.00,VWS V14.01,2013-03-02 00:24:00,
2013-03-01 16:29:00,65.8,51.1,30.21,SW,225,2.5,5.4,59,0.00,,,0.00,0.00,VWS V14.01,2013-03-02 00:29:00,
2013-03-01 16:30:00,63.5,50.3,30.18,SSW,202,3.8,4.0,62,0.00,,,0.00,0.00,VWS V14.01,2013-03-02 00:30:00,
2013-03-01 16:34:00,64.9,52.1,30.21,SSW,202,0.0,2.7,63,0.00,,,0.00,0.00,VWS V14.01,2013-03-02 00:34:00,
2013-03-01 16:39:00,64.8,50.6,30.21,SSW,202,4.0,4.0,60,0.00,,,0.00,0.00,VWS V14.01,2013-03-02 00:39:00,
2013-03-01 16:44:00,65.1,50.5,30.18,South,180,4.0,4.5,59,0.00,,,0.00,0.00,VWS V14.01,2013-03-02 00:44:00,
2013-03-01 16:45:00,63.0,49.8,30.18,SSW,202,0.0,5.4,62,0.00,,,0.00,0.00,VWS V14.01,2013-03-02 00:45:00,
2013-03-01 16:49:00,64.8,51.0,30.18,SW,225,3.1,5.4,61,0.00,,,0.00,0.00,VWS V14.01,2013-03-02 00:49:00,
2013-03-01 16:54:00,64.6,50.4,30.18,SSW,202,2.2,5.4,60,0.00,,,0.00,0.00,VWS V14.01,2013-03-02 00:54:00,
2013-03-01 16:59:00,64.4,50.7,30.18,SSW,202,0.0,5.4,61,0.00,,,0.00,0.00,VWS V14.01,2013-03-02 00:59:00,
2013-03-01 17:00:00,62.6,49.0,30.18,SSW,202,0.0,4.3,61,0.00,,,0.00,0.00,VWS V14.01,2013-03-02 01:00:00,
2013-03-01 17:04:00,64.0,50.3,30.18,SW,225,2.2,2.9,61,0.00,,,0.00,0.00,VWS V14.01,2013-03-02 01:04:00,
2013-03-01 17:09:00,63.7,50.4,30.18,SSW,202,3.6,3.8,62,0.00,,,0.00,0.00,VWS V14.01,2013-03-02 01:09:00,
2013-03-01 17:14:00,63.7,50.9,30.18,SW,225,2.9,4.3,63,0.00,,,0.00,0.00,VWS V14.01,2013-03-02 01:14:00,
2013-03-01 17:15:00,60.4,49.4,30.18,SSW,202,0.0,3.8,67,0.00,,,0.00,0.00,VWS V14.01,2013-03-02 01:15:00,
2013-03-01 17:19:00,63.3,50.1,30.18,SW,225,3.8,3.8,62,0.00,,,0.00,0.00,VWS V14.01,2013-03-02 01:19:00,
2013-03-01 17:24:00,63.3,50.1,30.18,SW,225,4.0,4.0,62,0.00,,,0.00,0.00,VWS V14.01,2013-03-02 01:24:00,
2013-03-01 17:29:00,63.5,50.3,30.18,SSW,202,3.6,4.0,62,0.00,,,0.00,0.00,VWS V14.01,2013-03-02 01:29:00,
2013-03-01 17:30:00,59.7,49.5,30.18,SSW,202,3.1,3.1,69,0.00,,,0.00,0.00,VWS V14.01,2013-03-02 01:30:00,
2013-03-01 17:34:00,63.5,49.8,30.18,SSW,202,3.6,4.3,61,0.00,,,0.00,0.00,VWS V14.01,2013-03-02 01:34:00,
2013-03-01 17:39:00,63.5,50.3,30.18,SW,225,4.0,4.9,62,0.00,,,0.00,0.00,VWS V14.01,2013-03-02 01:39:00,
2013-03-01 17:44:00,63.0,49.8,30.18,SSW,202,0.0,5.4,62,0.00,,,0.00,0.00,VWS V14.01,2013-03-02 01:44:00,
2013-03-01 17:45:00,61.2,48.9,30.21,West,270,2.2,5.4,64,0.00,,,0.00,0.00,VWS V14.01,2013-03-02 01:45:00,
2013-03-01 17:49:00,62.8,49.6,30.18,SW,225,1.6,2.7,62,0.00,,,0.00,0.00,VWS V14.01,2013-03-02 01:49:00,
2013-03-01 17:54:00,62.6,49.0,30.18,SW,225,2.0,3.8,61,0.00,,,0.00,0.00,VWS V14.01,2013-03-02 01:54:00,
2013-03-01 17:59:00,62.6,49.0,30.18,SSW,202,0.0,4.3,61,0.00,,,0.00,0.00,VWS V14.01,2013-03-02 01:59:00,
2013-03-01 18:00:00,59.4,50.0,30.21,SSW,202,0.0,2.2,71,0.00,,,0.00,0.00,VWS V14.01,2013-03-02 02:00:00,
2013-03-01 18:04:00,62.1,49.8,30.18,SSW,202,0.0,3.8,64,0.00,,,0.00,0.00,VWS V14.01,2013-03-02 02:04:00,
2013-03-01 18:09:00,61.0,49.5,30.18,SSW,202,0.0,3.8,66,0.00,,,0.00,0.00,VWS V14.01,2013-03-02 02:09:00,
2013-03-01 18:14:00,60.4,49.4,30.18,SSW,202,0.0,3.8,67,0.00,,,0.00,0.00,VWS V14.01,2013-03-02 02:14:00,
2013-03-01 18:15:00,58.1,49.9,30.21,WSW,248,1.3,2.2,74,0.00,,,0.00,0.00,VWS V14.01,2013-03-02 02:15:00,
2013-03-01 18:19:00,60.1,49.9,30.18,SSW,202,0.0,0.0,69,0.00,,,0.00,0.00,VWS V14.01,2013-03-02 02:19:00,
2013-03-01 18:24:00,59.7,50.3,30.18,SSW,202,0.0,0.0,71,0.00,,,0.00,0.00,VWS V14.01,2013-03-02 02:24:00,
2013-03-01 18:29:00,59.7,49.5,30.18,SSW,202,3.1,3.1,69,0.00,,,0.00,0.00,VWS V14.01,2013-03-02 02:29:00,
2013-03-01 18:30:00,57.6,50.1,30.24,SSW,202,0.0,1.3,76,0.00,,,0.00,0.00,VWS V14.01,2013-03-02 02:30:00,
2013-03-01 18:35:00,60.8,48.6,30.18,SSW,202,4.0,4.7,64,0.00,,,0.00,0.00,VWS V14.01,2013-03-02 02:35:00,
2013-03-01 18:40:00,61.3,48.7,30.18,SSW,202,4.3,5.4,63,0.00,,,0.00,0.00,VWS V14.01,2013-03-02 02:40:00,
2013-03-01 18:45:00,61.2,48.9,30.21,West,270,0.0,2.2,64,0.00,,,0.00,0.00,VWS V14.01,2013-03-02 02:45:00,
2013-03-01 18:50:00,60.4,50.2,30.21,SSW,202,0.0,2.2,69,0.00,,,0.00,0.00,VWS V14.01,2013-03-02 02:50:00,
2013-03-01 18:55:00,59.9,50.1,30.21,SSW,202,0.0,2.2,70,0.00,,,0.00,0.00,VWS V14.01,2013-03-02 02:55:00,
2013-03-01 19:00:00,59.2,49.8,30.21,SSW,202,0.0,0.0,71,0.00,,,0.00,0.00,VWS V14.01,2013-03-02 03:00:00,
2013-03-01 19:05:00,58.6,50.0,30.21,SSW,202,0.0,0.0,73,0.00,,,0.00,0.00,VWS V14.01,2013-03-02 03:05:00,
2013-03-01 19:10:00,58.1,49.5,30.21,SSW,202,0.0,0.0,73,0.00,,,0.00,0.00,VWS V14.01,2013-03-02 03:10:00,
2013-03-01 19:15:00,58.1,49.9,30.21,WSW,248,0.0,1.3,74,0.00,,,0.00,0.00,VWS V14.01,2013-03-02 03:15:00,
2013-03-01 19:20:00,57.9,49.7,30.21,WSW,248,0.0,1.3,74,0.00,,,0.00,0.00,VWS V14.01,2013-03-02 03:20:00,
2013-03-01 19:25:00,57.4,49.9,30.21,SSW,202,0.0,1.3,76,0.00,,,0.00,0.00,VWS V14.01,2013-03-02 03:25:00,
2013-03-01 19:30:00,57.6,50.1,30.24,SSW,202,0.0,0.0,76,0.00,,,0.00,0.00,VWS V14.01,2013-03-02 03:30:00,
2013-03-01 19:35:00,57.6,49.7,30.24,SSW,202,0.0,0.0,75,0.00,,,0.00,0.00,VWS V14.01,2013-03-02 03:35:00,
2013-03-01 19:40:00,57.4,50.2,30.24,SSW,202,0.0,0.0,77,0.00,,,0.00,0.00,VWS V14.01,2013-03-02 03:40:00,
2013-03-01 19:45:00,57.2,50.4,30.27,SSW,202,0.0,0.0,78,0.00,,,0.00,0.00,VWS V14.01,2013-03-02 03:45:00,
2013-03-01 19:50:00,56.8,50.4,30.27,SSW,202,0.0,0.0,79,0.00,,,0.00,0.00,VWS V14.01,2013-03-02 03:50:00,
2013-03-01 19:55:00,56.8,50.7,30.27,SSW,202,0.0,0.0,80,0.00,,,0.00,0.00,VWS V14.01,2013-03-02 03:55:00,
2013-03-01 20:00:00,54.7,50.6,30.24,SSW,202,0.0,0.0,86,0.00,,,0.00,0.00,VWS V14.01,2013-03-02 04:00:00,
2013-03-01 20:01:00,56.8,50.4,30.27,SSW,202,0.0,0.0,79,0.00,,,0.00,0.00,VWS V14.01,2013-03-02 04:01:00,
2013-03-01 20:06:00,56.7,50.2,30.27,SSW,202,0.0,0.0,79,0.00,,,0.00,0.00,VWS V14.01,2013-03-02 04:06:00,
2013-03-01 20:11:00,56.7,50.9,30.27,SSW,202,0.0,0.0,81,0.00,,,0.00,0.00,VWS V14.01,2013-03-02 04:11:00,
2013-03-01 20:15:00,54.3,50.8,30.24,SSW,202,0.0,0.0,88,0.00,,,0.00,0.00,VWS V14.01,2013-03-02 04:15:00,
2013-03-01 20:16:00,56.5,51.1,30.24,SSW,202,0.0,0.0,82,0.00,,,0.00,0.00,VWS V14.01,2013-03-02 04:16:00,
2013-03-01 20:21:00,56.1,51.0,30.24,SSW,202,0.0,0.0,83,0.00,,,0.00,0.00,VWS V14.01,2013-03-02 04:21:00,
2013-03-01 20:26:00,55.8,50.7,30.24,SSW,202,0.0,0.0,83,0.00,,,0.00,0.00,VWS V14.01,2013-03-02 04:26:00,
2013-03-01 20:30:00,54.0,50.2,30.24,SSW,202,0.0,0.0,87,0.00,,,0.00,0.00,VWS V14.01,2013-03-02 04:30:00,
2013-03-01 20:31:00,55.4,50.7,30.24,SSW,202,0.0,0.0,84,0.00,,,0.00,0.00,VWS V14.01,2013-03-02 04:31:00,
2013-03-01 20:36:00,55.4,51.0,30.24,SSW,202,0.0,0.0,85,0.00,,,0.00,0.00,VWS V14.01,2013-03-02 04:36:00,
2013-03-01 20:41:00,55.2,50.8,30.24,SSW,202,0.0,0.0,85,0.00,,,0.00,0.00,VWS V14.01,2013-03-02 04:41:00,
2013-03-01 20:45:00,53.6,50.7,30.24,SSW,202,0.0,0.0,90,0.00,,,0.00,0.00,VWS V14.01,2013-03-02 04:45:00,
2013-03-01 20:46:00,55.0,50.6,30.24,SSW,202,0.0,0.0,85,0.00,,,0.00,0.00,VWS V14.01,2013-03-02 04:46:00,
2013-03-01 20:51:00,54.9,50.8,30.24,SSW,202,0.0,0.0,86,0.00,,,0.00,0.00,VWS V14.01,2013-03-02 04:51:00,
2013-03-01 20:56:00,54.9,50.8,30.24,SSW,202,0.0,0.0,86,0.00,,,0.00,0.00,VWS V14.01,2013-03-02 04:56:00,
2013-03-01 21:00:00,54.7,50.6,30.24,SSW,202,0.0,0.0,86,0.00,,,0.00,0.00,VWS V14.01,2013-03-02 05:00:00,
2013-03-01 21:01:00,54.7,50.6,30.24,SSW,202,0.0,0.0,86,0.00,,,0.00,0.00,VWS V14.01,2013-03-02 05:01:00,
2013-03-01 21:02:00,54.7,50.6,30.24,SSW,202,0.0,0.0,86,0.00,,,0.00,0.00,VWS V14.01,2013-03-02 05:02:00,
2013-03-01 21:07:00,54.5,50.7,30.24,SSW,202,0.0,0.0,87,0.00,,,0.00,0.00,VWS V14.01,2013-03-02 05:07:00,
2013-03-01 21:11:00,54.5,50.7,30.24,SSW,202,0.0,0.0,87,0.00,,,0.00,0.00,VWS V14.01,2013-03-02 05:11:00,
2013-03-01 21:15:00,54.3,51.5,30.24,SSW,202,0.0,0.0,90,0.00,,,0.00,0.00,VWS V14.01,2013-03-02 05:15:00,
2013-03-01 21:16:00,54.3,50.8,30.24,SSW,202,0.0,0.0,88,0.00,,,0.00,0.00,VWS V14.01,2013-03-02 05:16:00,
2013-03-01 21:22:00,54.1,50.4,30.24,SSW,202,0.0,0.0,87,0.00,,,0.00,0.00,VWS V14.01,2013-03-02 05:22:00,
2013-03-01 21:27:00,54.0,50.5,30.24,SSW,202,0.0,0.0,88,0.00,,,0.00,0.00,VWS V14.01,2013-03-02 05:27:00,
2013-03-01 21:30:00,53.6,50.4,30.24,SSW,202,0.0,0.0,89,0.00,,,0.00,0.00,VWS V14.01,2013-03-02 05:30:00,
2013-03-01 21:32:00,53.8,50.3,30.24,SSW,202,0.0,0.0,88,0.00,,,0.00,0.00,VWS V14.01,2013-03-02 05:32:00,
2013-03-01 21:37:00,53.8,50.3,30.24,SSW,202,0.0,0.0,88,0.00,,,0.00,0.00,VWS V14.01,2013-03-02 05:37:00,
2013-03-01 21:42:00,53.6,50.4,30.24,SSW,202,0.0,0.0,89,0.00,,,0.00,0.00,VWS V14.01,2013-03-02 05:42:00,
2013-03-01 21:45:00,53.2,50.4,30.24,SSW,202,0.0,0.0,90,0.00,,,0.00,0.00,VWS V14.01,2013-03-02 05:45:00,
2013-03-01 21:47:00,53.6,50.7,30.24,SSW,202,0.0,0.0,90,0.00,,,0.00,0.00,VWS V14.01,2013-03-02 05:47:00,
2013-03-01 21:52:00,54.0,52.0,30.24,SSW,202,0.0,0.0,93,0.00,,,0.00,0.00,VWS V14.01,2013-03-02 05:52:00,
2013-03-01 21:57:00,54.3,52.0,30.24,SSW,202,0.0,0.0,92,0.00,,,0.00,0.00,VWS V14.01,2013-03-02 05:57:00,
2013-03-01 22:00:00,52.5,50.0,30.24,SSW,202,0.0,0.0,91,0.00,,,0.00,0.00,VWS V14.01,2013-03-02 06:00:00,
2013-03-01 22:02:00,54.3,51.8,30.24,SSW,202,0.0,0.0,91,0.00,,,0.00,0.00,VWS V14.01,2013-03-02 06:02:00,
2013-03-01 22:07:00,54.3,51.8,30.24,SSW,202,0.0,0.0,91,0.00,,,0.00,0.00,VWS V14.01,2013-03-02 06:07:00,
2013-03-01 22:12:00,54.3,51.8,30.24,SSW,202,0.0,0.0,91,0.00,,,0.00,0.00,VWS V14.01,2013-03-02 06:12:00,
2013-03-01 22:15:00,52.3,50.4,30.24,SSW,202,0.0,0.0,93,0.00,,,0.00,0.00,VWS V14.01,2013-03-02 06:15:00,
2013-03-01 22:17:00,54.1,51.3,30.24,SSW,202,0.0,0.0,90,0.00,,,0.00,0.00,VWS V14.01,2013-03-02 06:17:00,
2013-03-01 22:22:00,54.0,50.8,30.24,SSW,202,0.0,0.0,89,0.00,,,0.00,0.00,VWS V14.01,2013-03-02 06:22:00,
2013-03-01 22:27:00,53.6,50.7,30.24,SSW,202,0.0,0.0,90,0.00,,,0.00,0.00,VWS V14.01,2013-03-02 06:27:00,
2013-03-01 22:30:00,54.1,51.9,30.24,SSW,202,2.5,3.1,92,0.00,,,0.00,0.00,VWS V14.01,2013-03-02 06:30:00,
2013-03-01 22:32:00,53.4,50.6,30.24,SSW,202,0.0,0.0,90,0.00,,,0.00,0.00,VWS V14.01,2013-03-02 06:32:00,
2013-03-01 22:37:00,53.4,50.9,30.24,SSW,202,0.0,0.0,91,0.00,,,0.00,0.00,VWS V14.01,2013-03-02 06:37:00,
2013-03-01 22:42:00,53.2,50.4,30.24,SSW,202,0.0,0.0,90,0.00,,,0.00,0.00,VWS V14.01,2013-03-02 06:42:00,
2013-03-01 22:45:00,54.7,51.8,30.21,SSW,202,2.2,3.1,90,0.00,,,0.00,0.00,VWS V14.01,2013-03-02 06:45:00,
2013-03-01 22:47:00,53.1,50.2,30.24,SSW,202,0.0,0.0,90,0.00,,,0.00,0.00,VWS V14.01,2013-03-02 06:47:00,
2013-03-01 22:52:00,52.9,50.0,30.24,SSW,202,0.0,0.0,90,0.00,,,0.00,0.00,VWS V14.01,2013-03-02 06:52:00,
2013-03-01 22:57:00,52.5,50.0,30.24,SSW,202,0.0,0.0,91,0.00,,,0.00,0.00,VWS V14.01,2013-03-02 06:57:00,
2013-03-01 23:00:00,54.9,51.7,30.21,SSW,202,1.6,3.1,89,0.00,,,0.00,0.00,VWS V14.01,2013-03-02 07:00:00,
2013-03-01 23:02:00,52.3,49.8,30.24,SSW,202,0.0,0.0,91,0.00,,,0.00,0.00,VWS V14.01,2013-03-02 07:02:00,
2013-03-01 23:07:00,52.3,50.1,30.24,SSW,202,0.0,0.0,92,0.00,,,0.00,0.00,VWS V14.01,2013-03-02 07:07:00,
2013-03-01 23:12:00,52.3,50.4,30.24,SSW,202,0.0,0.0,93,0.00,,,0.00,0.00,VWS V14.01,2013-03-02 07:12:00,
2013-03-01 23:15:00,54.3,51.5,30.21,SSW,202,0.0,1.6,90,0.00,,,0.00,0.00,VWS V14.01,2013-03-02 07:15:00,
2013-03-01 23:17:00,52.5,50.8,30.24,SSW,202,0.0,0.0,94,0.00,,,0.00,0.00,VWS V14.01,2013-03-02 07:17:00,
2013-03-01 23:22:00,53.4,51.7,30.24,SSW,202,2.7,3.1,94,0.00,,,0.00,0.00,VWS V14.01,2013-03-02 07:22:00,
2013-03-01 23:27:00,54.1,51.9,30.24,SW,225,2.2,3.1,92,0.00,,,0.00,0.00,VWS V14.01,2013-03-02 07:27:00,
2013-03-01 23:30:00,53.8,51.2,30.21,SSW,202,0.0,0.0,91,0.00,,,0.00,0.00,VWS V14.01,2013-03-02 07:30:00,
2013-03-01 23:32:00,54.3,52.0,30.24,SSW,202,2.7,2.9,92,0.00,,,0.00,0.00,VWS V14.01,2013-03-02 07:32:00,
2013-03-01 23:37:00,54.7,52.1,30.24,SSW,202,3.1,3.1,91,0.00,,,0.00,0.00,VWS V14.01,2013-03-02 07:37:00,
2013-03-01 23:42:00,54.7,52.1,30.21,SSW,202,1.1,3.1,91,0.00,,,0.00,0.00,VWS V14.01,2013-03-02 07:42:00,
2013-03-01 23:45:00,54.5,51.9,30.21,SSW,202,1.6,2.5,91,0.00,,,0.00,0.00,VWS V14.01,2013-03-02 07:45:00,
2013-03-01 23:47:00,54.7,51.8,30.21,SSW,202,2.0,2.5,90,0.00,,,0.00,0.00,VWS V14.01,2013-03-02 07:47:00,
2013-03-01 23:52:00,54.9,51.7,30.21,SSW,202,2.9,3.1,89,0.00,,,0.00,0.00,VWS V14.01,2013-03-02 07:52:00,
2013-03-01 23:57:00,54.9,51.7,30.21,SSW,202,2.5,3.1,89,0.00,,,0.00,0.00,VWS V14.01,2013-03-02 07:57:00,